EHI
0 1 5 9 12 15 18 23 29 33 30 22 14 7 2 0 0 0 0 0 0 0 0 0 0 0 1 3 6 7 11 16 13 6 2 1 0 0 0 0 0 0 0
0 0 2 5 7 9 12 15 18 21 21 19 14 7 1 0 0 0 0 0 0 0 0 0 0 0 0 2 4 6 10 13 11 6 3 1 0 0 0 0 0 0 0
0 0 0 1 1 3 4 5 6 7 9 11 11 5 1 0 0 0 0 0 0 0 0 0 0 0 0 1 3 5 7 8 7 4 3 2 0 0 0 0 0 0 0
0 0 0 0 0 0 1 1 1 1 2 4 5 2 0 0 0 0 0 0 0 0 0 0 0 0 0 0 2 3 5 5 4 3 2 1 0 0 0 0 0 0 0
0 0 0 0 0 0 0 0 0 0 0 1 1 0 0 0 0 0 0 0 0 0 0 0 0 0 0 0 1 2 2 3 3 2 1 0 0 0 0 0 0 0 0
0 0 0 0 0 0 0 0 0 0 0 0 0 0 0 0 0 0 0 0 0 0 0 0 0 0 0 0 0 0 0 1 1 1 0 0 0 0 0 0 0 0 0
0 0 0 0 0 0 0 0 0 0 0 0 0 0 0 0 0 0 0 0 0 0 0 0 0 0 0 0 0 0 0 0 0 0 0 0 0 0 0 0 0 0 0
0 0 0 0 0 0 0 0 0 0 0 0 0 0 0 0 0 0 0 0 0 0 0 0 0 0 0 0 0 0 0 0 0 0 0 0 0 0 0 0 0 0 0
0 0 0 0 0 0 0 0 0 0 0 0 0 0 0 0 0 0 0 0 0 0 0 0 0 0 0 0 0 0 0 0 0 0 0 0 0 0 0 0 0 0 0
0 0 0 0 0 0 0 0 0 0 0 0 0 0 0 0 0 0 0 0 0 0 0 0 0 0 0 0 0 0 0 0 0 0 0 0 0 0 0 0 0 0 0
0 0 0 0 0 0 0 0 0 0 0 0 0 0 0 0 0 0 0 0 0 0 0 0 0 0 0 0 0 0 0 0 0 0 0 0 0 0 0 0 0 0 0
0 0 0 0 0 0 0 0 0 0 0 0 0 0 0 0 0 0 0 0 0 0 0 0 0 0 0 0 0 0 0 0 0 0 0 0 0 0 0 0 0 0 0
0 0 0 0 0 0 0 0 0 0 0 0 0 0 0 0 0 0 0 0 0 0 0 0 0 0 0 0 0 0 0 0 0 0 0 0 0 0 0 0 0 0 0
0 0 0 0 0 0 0 0 0 0 0 0 0 0 0 0 0 0 0 0 0 0 0 0 0 0 0 0 0 0 0 0 0 0 0 0 0 0 0 0 0 0 0
0 0 0 0 0 0 0 0 0 0 0 0 0 0 0 0 0 0 0 0 0 0 0 0 0 0 0 0 0 0 0 0 0 0 0 0 0 0 0 0 0 0 0
0 0 0 0 0 0 0 0 0 0 0 0 0 0 0 0 0 0 0 0 0 0 0 0 0 0 0 0 0 0 0 0 0 0 0 0 0 0 0 0 0 0 0
0 0 0 0 0 0 0 0 0 0 0 0 0 0 0 0 0 0 0 0 0 0 0 0 0 0 0 0 0 0 0 0 0 0 0 0 0 0 0 0 0 0 0
0 0 0 0 0 0 0 0 0 0 0 0 0 0 0 0 0 0 0 0 0 0 0 0 0 0 0 0 0 0 0 0 0 0 0 0 0 0 0 0 0 0 0
0 0 0 0 0 0 0 0 0 0 0 0 0 0 0 0 0 0 0 0 0 0 0 0 0 0 0 0 0 0 0 0 0 0 0 0 0 0 0 0 0 0 0
0 0 0 0 0 0 0 0 0 0 0 0 0 0 0 0 0 0 0 0 0 0 0 0 0 0 0 0 0 0 0 0 0 0 0 0 0 0 0 0 0 0 0
0 0 0 0 0 0 0 0 0 0 0 0 0 0 0 0 0 0 0 0 0 0 0 0 0 0 0 0 0 0 0 0 0 0 0 0 0 0 0 0 0 0 0
0 0 0 0 0 0 0 0 0 0 0 0 0 0 0 0 0 0 0 0 0 0 0 0 0 0 0 0 0 0 0 0 0 0 0 0 0 0 0 0 0 0 0
0 0 0 0 0 0 0 0 0 0 0 0 0 0 0 0 0 0 0 0 0 0 0 0 0 0 0 0 0 0 0 0 0 0 0 0 0 0 0 0 0 0 0
0 0 0 0 0 0 0 0 0 0 0 0 0 0 0 0 0 0 0 0 0 0 0 0 0 0 0 0 0 0 0 0 0 0 0 0 0 0 0 0 0 0 0
0 0 0 0 0 0 0 0 0 0 0 0 0 0 0 0 0 0 0 0 0 0 0 0 0 0 0 0 0 0 0 0 0 0 0 0 0 0 0 0 0 0 0
0 0 0 0 0 0 0 0 0 0 0 0 0 0 0 0 0 0 0 0 0 0 0 0 0 0 0 0 0 0 0 0 0 0 0 0 0 0 0 0 0 0 0
Wind_Speed
11 11 11 11 11 11 10 11 10 10 10 10 10 10 11 11 11 11 11 11 11 11 10 10 9 8 6 6 5 4 4 4 5 4 3 3 4 6 6 7 7 8 10
11 11 12 12 12 12 12 12 12 11 11 11 10 10 10 10 10 11 11 10 10 10 9 9 8 6 6 4 4 4 3 5 8 8 4 3 5 6 7 7 7 9 10
10 11 11 12 12 13 13 13 13 12 11 11 10 10 10 9 9 9 9 8 8 8 7 6 6 6 5 4 4 5 5 6 7 8 7 4 4 6 7 8 9 8 10
10 10 10 10 11 12 13 14 13 12 12 12 11 10 9 9 8 8 7 6 5 4 3 3 4 4 5 5 5 7 8 9 8 7 7 6 6 6 6 7 8 7 7
10 11 10 10 11 11 12 13 13 13 12 11 11 10 9 7 6 6 6 4 3 1 1 1 2 4 6 5 6 8 9 8 8 7 7 7 6 6 6 6 8 7 7
13 13 13 12 12 12 12 13 13 12 12 11 11 10 9 6 1 2 5 3 1 1 3 4 6 8 11 12 11 9 7 8 8 8 7 7 7 6 5 6 7 7 7
15 15 15 15 14 13 13 13 12 12 12 12 11 10 9 5 4 2 2 2 2 3 4 5 6 8 10 11 13 13 11 9 5 6 9 9 8 7 6 6 6 7 7
16 16 16 15 15 14 13 13 12 10 10 10 11 10 9 7 8 5 3 3 4 5 5 7 8 8 9 10 12 11 10 9 6 8 9 9 9 7 6 8 9 9 7
17 17 16 16 15 15 14 13 12 10 10 10 10 10 10 8 10 9 7 6 6 6 6 7 9 10 10 11 12 12 12 10 13 16 14 13 12 8 3 6 7 7 7
17 16 16 16 16 16 15 13 12 10 9 9 9 10 10 9 12 12 10 7 8 7 7 7 9 10 9 8 11 12 12 11 11 12 10 10 9 7 4 2 3 5 7
17 17 16 16 15 16 15 13 12 11 9 8 8 9 9 9 12 13 10 7 9 9 9 8 8 9 7 5 7 9 11 11 10 10 9 9 8 7 6 7 7 5 5
18 17 17 16 15 14 13 12 12 11 10 8 7 7 6 8 11 12 11 6 6 9 9 9 9 10 8 5 6 11 11 9 8 8 8 8 8 8 8 9 10 10 9
18 18 17 16 14 14 14 14 12 10 8 6 4 5 5 6 9 12 11 7 5 6 7 12 13 13 11 8 11 11 10 7 7 7 8 8 8 8 8 8 9 8 8
18 17 15 14 15 14 12 12 11 9 7 6 4 4 5 6 8 11 10 9 10 10 11 14 13 10 8 11 10 9 7 6 6 7 8 8 8 7 7 7 7 7 8
17 16 15 14 13 12 12 11 11 10 7 6 5 4 5 7 9 14 13 13 12 12 14 11 11 11 11 10 9 8 7 7 7 8 8 8 7 7 6 5 4 5 6
15 14 11 10 10 10 10 10 11 12 8 9 8 8 7 7 7 13 14 13 15 18 14 12 12 11 11 11 10 9 8 8 8 8 8 7 7 7 7 6 5 5 5
14 13 9 9 10 10 10 10 9 9 11 11 12 12 12 9 11 14 15 17 18 17 12 11 11 11 11 10 10 9 9 9 7 8 7 7 7 7 6 6 5 5 5
14 13 11 9 10 10 10 10 9 8 6 6 8 11 13 13 15 17 19 17 13 13 11 11 11 11 10 10 10 9 9 9 8 8 8 7 7 7 6 6 5 5 5
11 8 8 9 9 9 9 9 8 8 6 5 4 5 11 14 17 20 21 15 15 14 11 12 11 11 11 10 10 9 10 9 9 8 8 7 7 7 6 6 6 4 2
9 11 11 9 8 9 9 9 8 6 6 5 5 6 10 12 12 15 15 14 14 13 11 12 11 11 11 10 10 10 10 9 9 8 8 7 7 6 7 7 7 7 5
6 8 11 9 8 9 8 8 6 5 4 4 6 9 15 15 16 18 16 14 14 13 12 12 12 12 11 10 10 11 12 10 9 9 8 8 8 7 6 6 6 5 5
5 6 6 7 7 7 7 6 4 4 4 5 6 11 17 15 15 16 15 13 13 12 12 11 11 11 11 11 11 11 11 10 10 9 9 8 7 7 7 7 6 6 5
4 5 5 6 6 6 6 5 4 4 5 6 9 13 14 13 15 15 15 13 12 12 12 11 11 12 12 11 11 11 11 10 10 10 10 9 9 8 7 7 7 7 6
3 4 4 4 4 5 4 4 4 5 6 8 12 14 14 13 15 16 14 12 12 12 12 12 12 14 16 12 10 11 10 10 11 11 12 10 10 9 8 8 8 9 8
1 2 3 3 3 3 3 3 4 5 7 11 12 14 14 13 14 15 13 12 13 12 13 13 11 13 17 17 14 11 9 7 5 7 11 10 11 10 9 10 9 9 9
1 1 1 1 1 2 2 3 4 6 9 11 12 13 13 12 13 14 13 12 12 11 12 11 13 14 16 16 16 11 10 10 7 4 7 10 11 11 11 10 12 11 11
Wind_Direction
353 347 341 336 330 321 306 294 283 276 271 268 272 279 285 289 292 290 287 282 274 268 261 254 251 245 236 226 215 209 202 179 138 107 93 95 100 106 105 104 103 94 83
343 339 337 335 333 327 319 308 295 282 272 267 268 273 279 286 291 291 291 289 280 271 261 250 244 231 218 213 190 179 157 142 134 128 117 107 104 106 107 106 101 94 92
329 328 329 329 328 326 321 312 300 287 276 268 264 266 274 283 287 290 292 290 287 279 267 247 233 215 200 180 163 145 129 122 122 127 123 124 123 122 115 103 96 101 101
310 308 310 312 314 317 315 311 303 290 279 269 261 261 267 275 281 287 290 290 293 292 281 252 225 200 177 156 142 132 126 123 124 128 132 132 126 131 131 124 115 103 101
292 292 293 296 300 303 306 308 306 296 281 270 261 256 256 260 272 288 285 281 284 297 41 92 100 101 105 117 129 133 134 135 137 137 136 136 136 148 138 127 117 115 105
290 290 291 290 290 294 300 303 307 304 293 276 261 254 247 247 105 315 289 264 246 140 109 98 97 100 99 94 95 100 119 140 141 142 139 132 133 133 130 141 145 137 117
291 289 288 289 290 291 295 299 303 307 303 285 263 251 241 210 154 200 264 250 149 125 119 115 105 106 115 112 101 92 79 75 103 128 128 129 128 128 139 125 94 93 90
290 288 288 287 288 289 290 292 296 300 301 293 272 249 235 199 168 177 190 177 129 117 117 117 115 119 117 121 119 111 102 83 87 101 106 105 105 104 103 104 111 115 113
290 289 289 288 288 287 285 288 292 293 296 295 284 258 233 196 174 179 194 159 135 124 121 121 123 122 121 124 122 118 111 97 72 72 76 80 69 57 69 147 157 145 123
288 288 287 286 284 283 282 283 284 283 285 292 286 269 238 207 176 181 199 169 146 138 128 124 122 126 133 138 133 129 125 121 118 110 104 113 107 93 46 74 138 134 129
288 285 283 281 280 277 275 273 273 275 280 287 285 273 247 211 175 184 203 187 158 154 148 146 132 126 133 141 147 135 132 134 132 130 125 121 116 111 98 70 43 52 82
285 282 279 278 278 276 271 269 269 270 272 274 281 275 251 211 180 182 192 206 176 161 155 146 133 137 137 138 128 125 140 154 145 140 132 126 118 106 92 82 72 67 67
282 279 277 276 274 271 268 265 262 256 260 270 275 264 242 213 173 166 175 178 178 163 135 119 130 137 133 122 126 142 166 165 147 141 131 120 108 106 113 112 106 103 96
278 275 272 271 269 265 260 258 258 256 252 254 263 259 234 215 182 170 170 162 145 134 123 123 132 145 133 123 146 170 177 149 146 135 126 123 128 141 145 140 138 137 123
275 271 269 267 268 268 262 256 258 259 258 249 250 252 237 214 192 175 172 173 169 150 145 149 152 154 152 155 160 157 147 145 145 137 138 143 144 139 133 124 125 129 122
275 270 264 262 262 262 260 256 235 235 208 207 228 236 240 224 179 172 171 156 142 148 159 159 161 163 161 159 158 156 156 153 149 148 150 149 145 140 137 140 142 127 116
270 267 261 258 258 257 255 253 251 227 207 211 221 224 223 194 171 166 154 143 146 161 172 162 164 163 161 159 159 158 153 146 150 154 153 150 147 145 145 144 138 131 122
268 262 254 250 252 253 252 251 251 249 229 219 214 212 199 180 168 157 145 144 158 183 178 165 165 163 161 160 158 154 147 149 161 159 154 154 155 152 151 151 144 139 133
265 256 247 245 245 244 244 246 246 243 238 231 211 184 174 161 155 153 156 170 172 185 178 168 167 165 163 161 157 154 154 159 162 162 157 160 162 161 160 156 131 118 171
260 251 247 243 239 240 240 241 236 230 225 220 201 170 155 154 158 164 180 182 176 183 178 170 169 167 165 164 161 162 161 160 163 173 162 169 172 170 163 163 155 169 178
253 242 233 236 235 236 236 236 231 220 218 210 191 171 167 168 167 172 183 182 180 181 178 173 170 171 170 169 168 170 168 166 172 176 167 174 177 175 174 174 174 181 170
244 234 225 227 230 234 236 229 219 211 219 205 178 163 172 173 167 173 182 180 180 180 177 176 175 175 175 176 174 174 175 175 177 178 175 176 178 182 184 184 188 189 187
244 229 225 224 224 220 227 222 210 215 223 200 167 160 173 175 168 174 180 178 177 176 176 180 181 178 178 179 180 182 183 183 182 182 183 183 186 191 195 196 201 207 213
234 228 226 224 224 221 218 209 209 215 210 175 158 161 172 174 169 174 178 177 175 174 175 181 186 181 179 181 184 189 190 186 186 187 194 198 198 200 203 206 215 221 226
261 236 232 233 227 224 213 205 211 204 174 156 156 162 170 170 169 172 175 175 174 176 178 182 186 183 182 188 193 195 167 159 189 198 191 209 215 216 219 221 225 231 236
316 267 261 250 235 212 199 194 189 162 149 151 157 164 168 168 168 168 171 173 175 175 179 185 190 187 186 193 200 185 150 160 180 222 227 212 218 224 227 233 237 239 243